Temperature
29 29 29 31 32 32 32 32 32 33 34 33 33 32 33 33 32 32 30 29 27 26 25 23 22 21 20 20 19 19 19 19 18 18 18 18 18 18 18 18 18 18 18 18
29 29 31 32 33 32 32 31 32 33 34 33 32 32 33 33 32 31 31 29 28 26 24 23 22 21 20 20 19 19 19 19 19 18 18 18 18 18 18 18 18 18 18 18
29 31 32 32 32 31 31 31 32 32 33 33 32 31 32 32 32 31 31 29 28 26 24 23 21 21 20 19 19 19 19 19 19 18 18 18 18 18 18 18 18 18 18 18
30 31 32 32 31 31 31 32 32 32 31 31 32 30 31 31 31 31 31 29 28 27 25 23 22 21 20 19 19 19 18 18 18 18 18 18 18 18 18 18 18 17 17 17
30 32 31 31 31 32 31 33 32 32 31 30 31 31 31 31 30 31 31 30 28 26 25 23 22 21 20 19 19 19 18 18 18 18 18 18 18 18 18 17 17 17 17 17
31 33 33 32 32 32 32 32 31 31 31 29 30 30 30 31 31 31 30 29 27 26 25 23 22 21 20 20 19 18 18 18 18 18 18 18 18 18 17 17 17 17 17 17
30 31 33 33 32 32 32 30 29 29 28 29 31 30 30 31 32 31 30 28 27 26 25 23 22 21 20 20 19 19 18 18 18 18 18 18 18 18 17 17 17 17 17 17
29 29 32 32 31 31 31 30 28 28 29 29 30 29 30 32 31 31 29 28 27 26 25 24 22 21 20 20 19 19 18 18 18 18 18 18 18 17 17 17 17 17 17 17
30 30 33 33 33 32 31 30 31 30 29 29 29 29 30 31 31 30 29 28 27 26 25 24 23 22 21 20 19 19 18 18 18 18 18 18 17 17 17 17 17 17 17 17
31 30 32 33 32 32 32 31 31 29 28 28 29 29 29 29 29 29 29 28 27 26 25 24 23 22 21 20 19 18 18 18 18 18 18 18 18 17 17 17 17 17 17 17
31 30 31 32 31 31 31 30 30 30 30 29 28 27 29 28 29 29 28 28 27 26 24 23 22 21 20 20 19 18 18 18 18 18 17 17 17 17 17 17 17 17 17 17
31 30 30 31 32 32 32 31 30 29 29 29 29 28 30 29 29 29 28 27 26 25 24 23 22 21 20 20 19 18 18 18 18 17 17 17 17 17 17 17 17 17 17 17
30 29 28 29 31 31 31 31 31 30 30 29 29 28 30 29 29 28 28 27 26 25 24 22 22 21 20 20 19 19 18 18 17 17 17 17 17 17 17 17 17 17 17 17
30 29 29 29 30 31 30 31 31 31 29 29 29 28 29 28 28 28 27 26 25 24 23 22 21 21 20 19 19 19 18 18 17 17 17 17 17 17 17 17 17 17 17 16
30 28 29 30 31 31 31 31 31 31 30 30 29 29 28 28 27 27 26 26 25 24 23 22 21 20 20 19 19 18 18 18 17 17 17 17 17 17 16 16 16 16 16 16
29 28 28 28 30 31 31 31 31 31 31 31 30 29 28 27 28 27 26 25 24 23 23 22 21 20 19 19 18 18 18 17 17 17 17 17 16 16 16 16 16 16 16 16
28 27 27 27 29 30 29 30 31 31 31 31 29 28 28 27 26 26 26 25 24 23 22 21 20 19 19 19 18 18 17 17 17 17 16 16 16 16 16 16 16 16 16 16
27 26 26 27 27 27 29 32 31 31 31 30 29 28 27 26 25 25 24 24 23 23 22 21 20 19 19 18 18 18 17 17 17 16 16 16 16 16 16 16 15 15 15 15
27 26 26 26 26 27 29 31 31 30 29 29 28 27 26 25 24 24 23 23 22 22 21 20 20 19 18 18 18 17 17 17 16 16 16 16 16 16 16 15 15 15 15 15
27 26 26 26 25 26 28 30 31 30 28 28 27 26 26 25 25 23 21 21 21 20 20 19 19 19 18 18 17 17 17 16 16 16 16 16 16 16 15 15 15 15 14 14
25 25 25 25 25 26 27 28 29 27 26 27 26 25 25 23 23 21 20 20 19 19 19 19 18 18 17 17 17 17 16 16 16 16 16 15 15 15 15 15 14 14 14 14
24 24 24 24 25 24 26 27 25 23 24 24 24 23 22 21 20 20 19 19 18 18 18 18 17 17 17 17 16 16 16 15 15 15 15 15 14 14 14 14 14 13 13 13
24 24 25 24 24 23 23 23 23 23 23 23 22 22 21 20 20 19 19 18 18 17 17 17 17 16 16 16 16 15 15 15 15 15 14 14 14 14 13 13 13 13 13 12
23 24 24 23 23 23 23 23 22 22 22 22 21 21 20 20 19 18 18 17 17 16 16 16 16 15 15 15 15 15 14 14 14 14 14 13 13 13 12 12 12 12 12 12
20 21 22 22 22 22 22 22 22 21 21 21 21 20 19 19 18 17 17 16 16 15 15 15 14 14 14 14 14 14 14 14 14 13 13 12 12 12 12 11 11 11 11 11
20 20 20 21 21 21 20 20 20 20 20 20 19 19 18 18 17 16 16 15 15 14 14 14 13 13 13 13 13 13 13 13 13 13 12 12 11 11 11 10 10 10 10 10
Wind_Speed
13 13 15 15 17 17 17 16 15 10 5 5 9 10 7 5 6 6 7 9 11 11 12 13 13 13 13 13 13 12 11 11 9 8 8 7 6 5 4 4 9 10 8 9
15 18 19 18 16 15 14 15 15 12 8 6 10 12 10 7 6 4 5 9 11 11 13 13 13 13 14 13 13 13 12 12 10 8 7 6 6 5 5 4 6 10 9 9
21 16 14 17 17 15 14 14 14 14 12 10 12 13 11 8 6 6 7 8 11 13 15 15 14 13 14 14 14 12 11 11 11 10 7 6 5 4 4 5 6 7 9 9
20 22 17 13 14 15 15 14 14 14 13 12 12 11 7 5 7 7 8 9 10 12 14 14 14 14 13 13 13 11 11 11 10 10 10 10 8 7 7 6 6 6 7 8
17 18 19 18 15 15 15 14 12 12 12 14 15 12 5 5 6 7 7 8 10 12 13 14 14 14 13 13 12 11 11 11 10 10 10 10 8 7 6 7 8 7 6 7
20 18 15 17 16 14 13 13 12 12 12 15 14 13 7 4 6 6 8 8 9 11 12 12 12 12 11 12 11 11 11 10 11 11 10 10 9 8 8 8 8 7 6 6
22 21 18 14 15 15 14 11 9 10 11 12 12 11 4 6 6 6 9 9 9 10 11 12 12 12 12 11 11 11 11 10 10 11 10 10 9 9 9 9 8 7 6 6
19 18 21 17 16 14 15 16 12 10 9 6 6 6 3 7 9 8 9 10 9 11 11 11 12 12 11 11 11 11 11 10 10 10 9 8 8 7 6 8 7 7 6 7
14 17 17 18 17 18 17 16 18 17 17 11 5 3 5 7 8 10 10 10 8 9 11 11 11 10 10 10 10 10 9 9 9 9 9 8 8 7 6 7 7 6 5 6
21 15 12 16 14 17 19 15 11 13 12 12 9 7 4 9 8 10 11 10 9 9 9 10 10 10 9 9 8 8 8 8 8 9 8 8 8 8 7 7 7 6 6 5
22 18 14 14 16 16 16 17 14 10 11 12 8 0 3 5 7 9 10 11 11 9 10 10 9 9 9 9 8 8 8 7 7 7 7 6 7 7 7 7 7 6 5 6
18 14 15 14 15 16 16 18 16 12 11 11 9 3 6 8 8 9 10 10 10 10 11 11 10 9 9 9 9 8 8 8 7 6 6 6 6 6 6 7 6 6 6 6
12 12 13 14 14 15 16 17 17 15 11 11 10 4 8 8 7 8 11 11 10 11 11 11 10 9 8 7 7 8 7 8 7 7 6 6 6 6 6 6 6 5 5 5
7 12 15 16 11 14 15 16 17 16 13 13 9 7 8 8 9 9 10 11 11 11 10 10 9 8 7 6 5 6 6 7 7 7 7 6 6 6 6 5 5 5 6 5
8 14 16 18 15 13 15 16 18 18 16 12 6 7 8 8 10 11 10 11 11 10 10 9 8 8 7 6 5 5 5 5 6 7 7 7 6 5 5 5 5 6 5 6
10 12 15 18 19 16 14 16 17 17 15 13 8 5 8 6 8 11 11 11 11 10 9 9 8 8 7 6 6 5 5 6 5 5 6 6 6 6 5 5 5 5 5 5
13 12 14 16 18 17 17 15 15 13 12 11 7 4 10 9 8 8 9 9 10 9 9 9 8 7 6 6 6 5 5 5 6 5 5 5 6 5 5 6 6 6 5 5
11 10 11 15 15 18 14 12 11 11 10 6 6 8 9 12 10 7 7 9 8 8 9 8 7 7 6 6 6 5 6 6 6 5 5 5 5 5 5 5 5 6 5 5
9 9 12 14 16 16 12 10 11 11 8 6 8 10 10 12 10 8 7 8 8 7 7 7 6 6 6 6 6 5 5 5 5 5 5 5 5 5 5 6 6 6 7 7
12 8 11 12 14 14 9 6 6 7 7 6 8 9 10 9 6 6 8 9 9 8 7 6 6 7 6 5 6 5 5 5 5 4 5 5 5 5 6 7 7 7 8 9
16 14 15 15 14 10 3 3 3 7 3 7 9 8 9 6 6 10 10 9 8 8 7 6 6 6 5 5 5 5 5 5 5 5 6 6 6 7 7 7 7 9 9 10
16 16 16 15 15 7 2 3 2 6 8 10 11 12 12 11 11 10 10 9 8 7 6 6 6 6 6 5 6 6 5 5 6 7 7 7 7 7 7 8 8 9 10 11
11 8 8 7 4 6 9 8 8 7 8 10 11 11 11 10 10 9 9 8 8 7 6 6 6 7 6 5 6 6 5 6 7 8 8 8 8 7 7 8 8 8 8 8
2 1 3 4 7 9 8 8 8 9 9 9 9 9 10 10 9 8 8 7 7 7 6 6 7 7 6 6 6 6 6 8 9 9 9 8 9 9 8 7 6 6 6 7
4 2 3 5 8 8 8 8 9 9 8 9 8 9 9 9 9 8 7 7 6 6 6 6 7 7 7 7 7 7 7 9 10 10 10 10 10 10 10 10 9 8 7 5
2 2 1 3 6 7 7 6 7 7 8 8 7 8 8 8 8 8 7 7 6 6 6 6 7 8 8 8 8 7 7 8 10 9 9 9 9 9 10 11 12 18 15 16
Wind_Direction
216 230 238 240 238 253 279 295 302 301 292 279 278 276 263 228 233 216 178 166 161 161 158 155 162 166 166 160 163 168 170 166 163 170 172 171 170 171 170 167 159 166 174 172
227 232 241 252 259 260 268 277 282 285 275 276 278 275 266 238 233 222 197 168 164 162 157 157 163 168 168 165 167 170 174 171 172 175 174 173 167 169 175 180 158 170 177 179
228 239 231 238 252 259 260 264 271 281 288 269 267 265 252 233 214 207 203 181 169 166 162 163 167 170 170 169 173 177 176 174 177 172 170 170 155 163 178 180 169 180 182 186
235 245 252 246 248 251 257 258 264 273 279 279 277 274 254 208 194 203 194 177 168 162 160 163 168 170 173 172 174 173 174 177 179 174 177 176 177 182 185 182 177 183 190 190
235 234 239 244 249 251 257 267 269 270 271 273 275 276 254 198 199 188 174 161 152 154 161 164 169 171 171 171 171 173 174 178 180 183 185 187 189 187 181 179 177 183 192 194
247 244 236 241 245 248 253 260 266 263 263 258 260 265 255 211 179 154 140 131 137 150 156 159 163 162 163 166 170 173 174 181 184 189 191 194 193 186 183 182 178 185 189 197
242 245 243 236 240 234 232 239 246 242 237 249 249 247 241 129 128 135 137 138 142 145 152 156 159 160 163 168 171 173 175 183 187 191 195 197 196 189 186 183 186 190 192 197
230 233 231 227 231 238 223 228 237 252 260 264 252 236 154 118 120 127 132 132 141 153 158 159 161 162 165 170 172 173 176 182 187 190 194 193 189 192 192 186 188 199 201 197
239 231 221 213 217 232 235 227 241 259 277 280 244 216 149 143 138 132 130 136 145 148 151 153 153 155 158 165 168 172 175 179 183 188 189 189 187 191 193 187 193 204 201 197
252 268 232 203 209 220 238 238 236 248 267 275 265 241 203 154 152 139 142 148 143 146 142 140 144 144 149 154 155 158 168 174 179 184 189 189 185 187 190 190 197 198 199 200
236 253 252 212 205 220 217 236 243 253 253 262 264 255 107 154 160 154 152 148 148 148 137 137 141 141 142 144 150 156 161 164 171 178 182 179 179 183 185 190 192 188 188 189
220 237 249 232 208 222 226 225 230 241 254 266 272 207 155 154 160 154 140 134 136 134 133 140 145 147 150 151 154 156 160 164 166 167 168 170 168 173 180 186 188 186 185 187
212 233 238 237 216 214 224 222 228 232 248 256 261 166 146 140 138 133 131 135 137 134 134 137 142 145 151 150 151 155 162 160 160 160 161 161 168 173 179 182 182 179 178 183
224 230 238 235 224 208 217 223 223 226 233 243 248 175 162 153 138 132 139 143 139 137 136 136 136 137 137 136 141 147 150 149 156 159 163 163 171 176 180 176 174 172 170 172
236 230 240 255 260 248 222 222 222 223 234 244 239 188 175 159 148 147 150 144 138 139 142 141 141 137 138 137 140 140 144 145 151 158 164 168 171 170 168 166 166 164 168 172
226 246 239 247 254 257 245 228 224 225 229 234 230 192 131 134 144 148 149 143 142 145 146 142 139 139 144 147 150 150 150 147 147 154 161 161 164 166 164 161 152 150 154 153
215 229 246 246 244 249 243 235 229 225 229 231 223 169 138 142 131 144 144 142 141 142 140 141 144 145 146 151 155 155 147 144 145 149 150 152 158 161 160 161 150 150 148 142
224 217 232 247 248 243 242 237 233 225 220 205 145 132 122 120 117 119 129 134 133 134 136 138 143 139 142 148 151 148 147 141 141 140 139 140 146 153 150 144 140 137 131 127
233 221 230 239 241 241 240 232 231 225 209 158 141 133 131 123 118 101 94 108 117 118 117 126 133 133 132 137 137 138 141 141 141 137 134 136 137 136 134 136 135 130 122 115
234 226 231 234 239 240 239 244 247 213 200 132 123 129 135 141 155 119 98 92 92 92 97 104 115 118 118 117 128 135 134 127 125 127 122 118 125 132 127 121 121 118 113 109
216 216 225 236 240 241 280 317 266 213 173 102 109 112 119 111 101 118 113 101 97 94 98 103 107 107 105 113 121 127 124 124 122 117 111 106 106 109 109 111 114 115 112 107
212 214 218 232 237 232 42 142 79 71 67 80 94 96 103 105 110 113 110 106 104 102 103 104 102 100 96 101 117 115 112 111 112 111 108 105 103 105 110 108 108 112 115 113
217 220 216 219 208 88 71 87 96 98 87 86 90 96 112 118 116 114 109 107 103 100 98 96 100 96 90 88 102 113 112 112 112 106 101 100 100 96 97 103 108 111 113 117
251 222 175 149 139 116 103 102 100 92 90 96 101 111 118 118 116 115 109 104 101 100 97 98 99 98 88 82 88 98 110 113 111 108 103 100 98 93 87 85 90 101 109 119
312 261 171 151 132 114 94 89 91 94 94 91 97 106 111 117 121 119 116 110 104 99 95 100 105 102 96 90 88 89 100 112 112 110 109 105 99 96 88 77 66 76 72 97
309 318 240 131 114 112 109 104 100 95 93 90 89 98 106 112 118 116 111 109 106 99 96 99 102 101 95 92 91 88 98 113 117 116 112 109 108 106 103 98 82 63 70 71
Height
1479 1482 1479 1472 1467 1466 1464 1464 1463 1455 1448 1454 1459 1459 1456 1456 1459 1461 1465 1469 1473 1478 1483 1486 1489 1493 1497 1500 1504 1507 1511 1514 1518 1521 1525 1528 1532 1535 1539 1542 1545 1548 1551 1553
1477 1476 1468 1463 1460 1461 1463 1468 1465 1457 1449 1455 1459 1458 1453 1453 1456 1460 1463 1467 1471 1476 1480 1484 1487 1491 1494 1498 1501 1505 1509 1512 1515 1519 1523 1526 1530 1534 1537 1540 1543 1546 1549 1551
1473 1463 1458 1461 1463 1464 1465 1467 1465 1462 1453 1451 1457 1461 1453 1451 1454 1458 1462 1465 1468 1473 1478 1482 1486 1489 1493 1496 1500 1503 1507 1510 1514 1517 1521 1525 1529 1532 1535 1538 1540 1543 1547 1549
1464 1459 1456 1459 1461 1462 1467 1458 1458 1459 1464 1465 1460 1472 1456 1450 1453 1456 1459 1462 1466 1471 1476 1480 1484 1488 1491 1495 1499 1502 1505 1508 1512 1515 1518 1521 1525 1528 1531 1534 1538 1541 1544 1547
1457 1453 1455 1458 1458 1457 1459 1453 1454 1457 1463 1468 1461 1467 1459 1449 1455 1454 1456 1460 1464 1470 1475 1479 1483 1486 1490 1494 1497 1500 1503 1506 1509 1513 1516 1519 1523 1526 1529 1532 1535 1539 1542 1545
1449 1446 1447 1450 1450 1452 1453 1456 1457 1459 1464 1478 1465 1468 1464 1450 1450 1452 1456 1461 1465 1470 1474 1479 1483 1486 1490 1493 1496 1498 1501 1504 1507 1510 1514 1517 1520 1523 1526 1530 1533 1536 1539 1542
1453 1447 1443 1445 1450 1450 1454 1467 1480 1482 1481 1477 1456 1461 1457 1444 1444 1449 1455 1461 1466 1470 1474 1478 1482 1486 1489 1492 1494 1497 1499 1501 1505 1508 1511 1514 1517 1521 1524 1527 1530 1533 1536 1539
1456 1455 1442 1441 1447 1452 1453 1460 1480 1487 1481 1470 1457 1463 1452 1442 1445 1450 1455 1461 1466 1469 1473 1478 1481 1485 1488 1491 1493 1495 1497 1499 1502 1505 1508 1511 1515 1518 1521 1524 1527 1530 1533 1535
1443 1445 1430 1433 1438 1445 1451 1454 1451 1462 1466 1472 1465 1458 1451 1444 1447 1451 1456 1461 1466 1469 1473 1477 1481 1484 1487 1490 1492 1494 1496 1498 1500 1503 1506 1509 1511 1514 1518 1521 1524 1527 1530 1532
1436 1442 1428 1428 1434 1438 1442 1444 1452 1462 1477 1481 1469 1463 1459 1452 1452 1452 1457 1461 1466 1470 1474 1477 1481 1484 1487 1489 1491 1493 1494 1496 1499 1501 1504 1506 1509 1512 1515 1518 1521 1524 1526 1529
1432 1441 1434 1429 1437 1442 1444 1448 1449 1452 1456 1471 1478 1474 1450 1450 1450 1452 1456 1460 1465 1470 1473 1477 1481 1484 1487 1489 1491 1492 1494 1496 1498 1500 1502 1504 1507 1509 1512 1515 1518 1521 1523 1526
1427 1434 1440 1430 1424 1427 1433 1440 1446 1461 1461 1455 1462 1468 1443 1446 1448 1452 1456 1461 1465 1470 1473 1477 1481 1484 1487 1489 1491 1493 1494 1496 1497 1499 1501 1503 1505 1507 1510 1513 1515 1518 1520 1523
1425 1434 1449 1445 1436 1430 1431 1432 1436 1442 1450 1455 1461 1464 1443 1447 1450 1453 1457 1462 1466 1470 1474 1477 1481 1484 1487 1489 1491 1493 1494 1496 1497 1499 1500 1502 1504 1506 1508 1510 1512 1515 1517 1520
1424 1432 1440 1446 1437 1429 1433 1431 1431 1439 1450 1453 1451 1454 1447 1448 1450 1454 1459 1462 1466 1470 1474 1478 1481 1484 1487 1489 1491 1493 1494 1496 1497 1498 1499 1501 1502 1504 1506 1508 1510 1512 1514 1517
1424 1433 1433 1429 1423 1422 1425 1428 1428 1434 1437 1444 1444 1446 1446 1447 1451 1456 1459 1463 1467 1471 1475 1478 1481 1484 1487 1489 1491 1493 1494 1496 1497 1498 1499 1500 1502 1503 1505 1507 1508 1511 1513 1515
1426 1432 1432 1433 1424 1422 1423 1422 1423 1426 1429 1433 1438 1443 1442 1448 1450 1455 1459 1462 1467 1471 1475 1478 1481 1483 1486 1488 1490 1492 1494 1495 1496 1498 1499 1500 1501 1503 1504 1506 1507 1509 1511 1513
1426 1435 1439 1438 1427 1426 1433 1423 1422 1424 1423 1428 1438 1442 1442 1448 1451 1456 1459 1462 1467 1471 1474 1477 1480 1483 1486 1488 1490 1491 1493 1495 1496 1497 1499 1500 1501 1502 1504 1505 1507 1508 1510 1512
1426 1432 1437 1438 1436 1448 1427 1411 1414 1420 1423 1425 1432 1438 1443 1449 1454 1458 1461 1464 1468 1471 1474 1477 1480 1483 1485 1487 1489 1491 1493 1494 1496 1497 1498 1499 1501 1502 1503 1504 1506 1508 1510 1511
1422 1429 1436 1438 1441 1436 1421 1413 1414 1420 1426 1426 1431 1437 1445 1450 1455 1460 1463 1466 1468 1472 1474 1477 1480 1482 1484 1486 1488 1490 1492 1493 1495 1496 1497 1499 1500 1501 1502 1503 1505 1507 1509 1510
1423 1426 1435 1436 1443 1444 1426 1415 1414 1419 1432 1429 1434 1439 1445 1449 1456 1464 1466 1467 1470 1472 1475 1477 1480 1482 1484 1486 1487 1489 1491 1492 1494 1495 1496 1497 1499 1500 1501 1502 1504 1506 1508 1510
1430 1431 1435 1436 1439 1432 1421 1419 1420 1437 1440 1434 1437 1441 1447 1453 1457 1464 1467 1469 1471 1473 1475 1477 1479 1481 1483 1485 1486 1488 1489 1491 1492 1494 1495 1496 1497 1499 1500 1502 1503 1505 1508 1510
1427 1430 1434 1434 1439 1440 1425 1425 1433 1440 1438 1439 1442 1445 1451 1456 1461 1465 1468 1470 1472 1474 1476 1478 1479 1481 1482 1484 1485 1486 1488 1490 1491 1492 1494 1495 1497 1499 1500 1501 1503 1505 1508 1510
1420 1422 1423 1429 1434 1433 1432 1434 1438 1440 1443 1444 1447 1450 1455 1459 1463 1466 1469 1471 1473 1475 1477 1478 1479 1480 1482 1483 1484 1485 1487 1488 1490 1491 1493 1494 1496 1498 1500 1502 1504 1506 1508 1510
1420 1419 1423 1428 1431 1433 1436 1439 1441 1443 1446 1448 1451 1454 1457 1460 1464 1467 1470 1472 1474 1476 1477 1478 1479 1480 1481 1482 1483 1485 1486 1488 1489 1490 1492 1494 1496 1498 1500 1502 1504 1506 1508 1510
1432 1427 1427 1431 1433 1434 1439 1441 1444 1447 1449 1451 1454 1456 1459 1462 1465 1468 1471 1473 1475 1476 1477 1478 1479 1480 1481 1482 1483 1484 1485 1487 1488 1490 1492 1494 1496 1498 1500 1502 1504 1506 1509 1511
1433 1433 1433 1434 1434 1437 1443 1446 1447 1449 1451 1454 1456 1459 1461 1463 1466 1469 1471 1473 1475 1476 1478 1479 1479 1480 1481 1482 1483 1484 1486 1487 1488 1490 1492 1494 1496 1498 1500 1502 1505 1508 1510 1512